BAW0818 EBCI-EGLL

Flight info

Callsign BAW0818
Flight time N/A
Altitude 24000
Route CIV UY50 COA L608 LOGAN
Aircraft B738/M-SDE2E3FGHIRWXY/LB1

Departure

Time 2026-05-05 10:17
Airport Brussels South Charleroi Airport (EBCI)

Arrival

Time N/A
Airport London Heathrow Airport (EGLL)
Time Latitude Longitude Altitude Speed Heading
2026-05-05 10:12 50.46708 4.46905 575 ft 0 kts 65°
2026-05-05 10:12 50.46709 4.46910 575 ft 2 kts 66°
2026-05-05 10:13 50.46730 4.46981 574 ft 10 kts 64°
2026-05-05 10:13 50.46778 4.47131 568 ft 18 kts 63°
2026-05-05 10:13 50.46836 4.47330 561 ft 19 kts 65°
2026-05-05 10:13 50.46879 4.47479 557 ft 13 kts 64°
2026-05-05 10:14 50.46924 4.47549 540 ft 10 kts 343°
2026-05-05 10:14 50.46933 4.47493 549 ft 2 kts 240°
2026-05-05 10:14 50.46896 4.47388 560 ft 16 kts 244°
2026-05-05 10:14 50.46790 4.47351 561 ft 4 kts 206°
2026-05-05 10:15 50.46752 4.47294 564 ft 10 kts 239°
2026-05-05 10:15 50.46710 4.47151 568 ft 17 kts 243°
2026-05-05 10:15 50.46656 4.46969 574 ft 17 kts 245°
2026-05-05 10:15 50.46586 4.46847 577 ft 14 kts 170°
2026-05-05 10:16 50.46514 4.46884 576 ft 16 kts 168°
2026-05-05 10:16 50.46435 4.46829 577 ft 0 kts 241°
2026-05-05 10:16 50.46428 4.46810 578 ft 13 kts 243°
2026-05-05 10:17 50.46252 4.46202 593 ft 102 kts 245°
2026-05-05 10:17 50.45829 4.44743 613 ft 174 kts 246°
2026-05-05 10:17 50.45240 4.42803 1093 ft 200 kts 246°
2026-05-05 10:17 50.44615 4.40656 2022 ft 216 kts 248°
2026-05-05 10:18 50.43092 4.35302 3548 ft 258 kts 249°
2026-05-05 10:18 50.42339 4.32674 4504 ft 264 kts 249°
2026-05-05 10:18 50.41576 4.29999 5561 ft 266 kts 251°
2026-05-05 10:19 50.41142 4.27196 6600 ft 261 kts 270°
2026-05-05 10:19 50.41295 4.24339 7663 ft 257 kts 285°
2026-05-05 10:19 50.41994 4.21692 8650 ft 258 kts 300°
2026-05-05 10:19 50.42984 4.19241 9592 ft 261 kts 301°
2026-05-05 10:20 50.43990 4.16821 10366 ft 269 kts 300°
2026-05-05 10:20 50.44706 4.15064 10565 ft 286 kts 300°